Location: Bornel
(49.1982°N, 2.2091°E)
Time: 13:40:07
(UTC+00:00)

Daily predictions for brighter satellites

Satellite Brightness Start Highest point End
(mag) Time Altitude Azimuth Time Altitude Azimuth Time Altitude Azimuth
ATLAS 3B R/B 2.7 17:10:04 10° SW 17:16:37 85° SE 17:23:33 10° NE
Cosmos 2082 3.8 17:11:39 10° NNW 17:17:19 86° WSW 17:22:56 10° SSE
SMAP 3.3 17:13:43 10° S 17:18:22 80° WSW 17:23:05 10° NNW
Cosmos 1470 3.3 17:15:32 10° SSW 17:19:28 66° WNW 17:23:26 10° N
Radarsat Rocket 4.4 17:13:18 10° SSE 17:19:40 88° WSW 17:26:57 10° NNW
Cosmos 1703 3.7 17:21:54 10° N 17:25:38 39° ENE 17:29:19 10° SE
SL-8 Rocket 4.5 17:20:34 10° SSW 17:26:52 70° WNW 17:33:11 10° N
ATLAS 5 CENTAUR R/B 2.2 17:24:08 10° S 17:27:34 32° ESE 17:31:24 10° ENE
Cosmos 1821 Rocket 4.2 17:22:05 10° SSE 17:28:14 52° E 17:34:23 10° NNE
Cosmos 2322 Rocket 3.9 17:27:02 10° ESE 17:28:57 12° E 17:30:52 10° ENE
Cosmos 2218 Rocket 4.3 17:23:00 10° SSW 17:29:17 78° W 17:35:42 10° N
USA 267 4.0 17:23:00 10° SE 17:29:25 56° SW 17:35:52 10° WNW
Cosmos 1300 4.3 17:27:44 10° ESE 17:30:02 16° E 17:32:21 10° NE
SKYMED 2 4.2 17:27:43 10° NNE 17:31:44 35° E 17:35:43 10° SSE
Tiangong 3.7 17:31:33 10° SSE 17:32:09 10° SSE 17:32:45 10° SSE
Gbstr 26 Del rocket 4.5 17:27:18 10° WNW 17:34:10 81° SSW 17:42:08 10° ESE
CENTAUR R/B 4.2 17:31:22 10° WNW 17:37:11 29° N 17:43:55 10° NE
PSLV R/B 4.3 17:33:47 10° S 17:37:48 66° WSW 17:41:46 10° NNW
SL-19 R/B 4.3 17:34:29 10° NNE 17:40:14 62° ESE 17:45:44 10° S
MOS 1-B Rocket 4.5 17:35:19 10° NNE 17:41:49 43° E 17:47:29 10° SSE
YAOGAN 1 3.4 17:38:20 10° SE 17:42:02 28° ENE 17:45:44 10° N
Cosmos 405 Rocket 2.9 17:38:35 10° N 17:42:28 51° ENE 17:46:23 10° SSE
Cosmos 1455 Rocket 3.5 17:39:23 10° SSE 17:43:31 41° E 17:47:42 10° NNE
Cosmos 724 4.3 17:39:18 10° NW 17:45:18 72° NE 17:51:08 10° SE
H-2A R/B 3.5 17:43:59 10° NE 17:46:28 15° E 17:48:57 10° SE
Cosmos 1934 Rocket 4.4 17:41:06 10° SSE 17:46:39 39° E 17:52:12 10° NNE
CZ-4B R/B 3.3 17:41:56 10° SSE 17:47:36 84° ENE 17:53:19 10° NNW
Cosmos 2150 Rocket 4.3 17:42:45 10° SSW 17:48:12 79° WNW 17:53:36 10° NNE
Cosmos 1758 4.2 17:46:53 10° SSW 17:50:46 52° WNW 17:54:40 10° N
SL-08 RB Rocket 4.1 17:47:30 10° SE 17:51:45 41° ENE 17:56:05 10° N
Okean O Rocket 1.5 17:47:54 10° SSE 17:52:13 74° ENE 17:56:35 10° N
Cosmos 1328 4.1 17:48:52 10° N 17:52:45 44° ENE 17:56:37 10° SSE
H-2A R/B 2.8 17:49:55 10° SE 17:54:01 43° ENE 17:58:00 10° N
Cosmos 1544 Rocket 4.2 17:53:21 10° SSE 17:57:22 34° E 18:01:26 10° NNE
Cosmos 1953 2.2 17:53:36 10° S 17:57:39 79° E 18:01:44 10° NNE
CZ-4C R/B 3.2 17:54:28 10° NNE 17:57:45 41° E 18:00:54 10° S
Meteor 1-21 Rocket 4.4 17:52:23 10° NNW 17:58:15 84° W 18:04:11 10° S
Cosmos 2227 4.2 17:53:15 10° NNW 17:59:01 70° ENE 18:04:46 10° SE
Cosmos 2369 3.9 17:54:16 10° SSW 17:59:55 76° WNW 18:05:39 10° NNE
Cosmos 1174 3.8 17:57:57 10° SW 18:01:04 54° NW 18:04:01 10° NNE
Cosmos 2263 Rocket 2.1 17:56:22 10° NNW 18:01:59 88° ENE 18:07:33 10° SSE
ARGOS 3.1 17:57:22 10° SSE 18:02:44 73° ENE 18:08:10 10° N
Cosmos 2123 Rocket 4.0 17:57:12 10° N 18:03:30 62° ENE 18:09:44 10° SSE
Cosmos 1980 Rocket 2.2 17:58:42 10° SSW 18:04:22 88° WNW 18:10:07 10° NNE
CZ-2D R/B 4.4 18:02:39 10° S 18:06:22 46° W 18:10:07 10° NNW
H-2A R/B 2.6 18:02:10 10° S 18:07:31 68° WSW 18:12:59 10° NNW
CZ-4 R/B 4.4 18:03:23 10° SSE 18:07:32 86° ENE 18:11:42 10° NNW
CZ-4 R/B 1.6 18:04:22 10° SE 18:08:12 47° ENE 18:12:08 10° N
Okean-O 3.4 18:05:16 14° ESE 18:08:19 30° ENE 18:12:12 10° N
Okean 1-7 Rocket 3.5 18:04:48 10° N 18:09:11 60° ENE 18:13:33 10° SSE
Iridium 4 Rocket 3.1 18:13:16 10° N 18:17:45 72° E 18:22:36 10° S
Cosmos 389 Rocket 4.2 18:15:00 10° SW 18:18:06 33° WNW 18:21:16 10° N
Cosmos 1892 3.8 18:16:12 10° NNE 18:18:54 24° ENE 18:18:54 24° ENE
Cosmos 1602 Rocket 4.0 18:15:36 10° N 18:19:42 38° ENE 18:22:15 20° SE
COSMO-SKYMED 1 2.7 18:15:35 10° NNE 18:19:57 79° WNW 18:24:17 10° SSW
CZ-2C R/B 2.7 18:15:22 10° NNE 18:21:02 83° ESE 18:26:35 10° SSW
Cosmos 1697 Rocket 4.0 18:16:07 10° WSW 18:21:26 40° NW 18:26:47 10° NNE
Landsat 5 3.8 18:21:02 10° NNE 18:25:24 77° WNW 18:29:52 10° SSW
Cosmos 1908 4.5 18:22:13 10° SSW 18:25:56 44° WNW 18:29:40 10° N
CSL-04 Rocket 4.1 18:22:16 17° SE 18:26:04 41° ENE 18:31:15 10° N
X-37B 1.5 18:25:53 10° WSW 18:28:52 38° S 18:29:33 33° SSE
OBJECT-B 3.4 18:37:34 10° NNE 18:37:34 10° NNE 18:37:35 10° NNE
Cosmos 1844 Rocket 3.1 18:30:51 10° NNW 18:36:09 42° NE 18:38:02 32° E
USA 215 3.8 18:31:33 16° NE 18:36:36 52° NNW 18:42:54 10° W
NOSS 2-3 (E) 4.0 18:33:09 10° S 18:36:52 37° ESE 18:37:01 37° ESE
USA 229 DEB 4.2 18:35:42 10° S 18:41:12 32° ESE 18:42:07 31° E
USA 229 4.2 18:35:49 10° S 18:41:19 32° ESE 18:42:08 31° E
Cosmos 2278 4.1 18:36:30 10° SW 18:42:08 63° WNW 18:47:50 10° NNE
IRAS Rocket 4.1 18:38:07 10° NNE 18:43:44 83° ESE 18:49:16 10° SSW
Cosmos 1758 Rocket 3.7 18:44:22 10° N 18:48:34 48° ENE 18:48:34 48° ENE
Cosmos 2278 Rocket 4.0 18:45:37 10° N 18:48:59 16° NNE 18:49:28 16° NE
Cosmos 2251 Rocket 3.5 18:45:58 10° NNW 18:51:12 59° ENE 18:52:48 41° ESE
Cosmos 371 Rocket 3.2 18:47:15 10° SSW 18:52:07 87° ESE 18:57:02 10° NNE
Lacrosse 4 Rocket 1.3 18:49:18 10° NNW 18:53:36 72° NE 18:54:19 58° ESE
IRS-1C Rocket 4.0 18:48:48 10° SSE 18:54:05 88° W 18:59:23 10° NNW
Cosmos 1605 Rocket 3.9 18:47:51 10° S 18:54:05 77° E 19:00:28 10° NNE
Cosmos 1626 Rocket 3.8 18:52:02 10° NNW 18:56:20 66° W 19:00:36 10° S
SL-16 R/B 2.1 18:51:13 10° SSW 18:56:51 72° ESE 19:01:52 14° NNE
Cosmos 1447 Rocket 4.3 18:55:30 10° N 19:01:40 77° E 19:07:12 13° SSE
NOSS 3-1 (A) 3.7 18:58:28 10° S 19:02:24 37° SE 19:02:24 37° SE
Cosmos 1300 3.7 19:01:36 10° SSW 19:05:16 46° WNW 19:08:58 10° N
Cosmos 407 Rocket 4.0 19:02:43 10° NNW 19:07:25 41° NE 19:07:25 41° NE
DMSP B5D1-3 4.5 19:02:39 10° NNE 19:07:49 84° WNW 19:12:58 10° SSW
ATLAS 3B R/B 4.0 19:02:04 10° W 19:08:06 35° NNW 19:14:03 12° NE
Tiangong 3.7 19:05:52 10° SW 19:06:42 14° SSW 19:06:42 14° SSW
Cosmos 1153 Rocket 4.5 19:02:06 10° S 19:08:24 64° E 19:14:44 10° NNE
Cosmos 2322 Rocket 2.0 19:06:22 10° SSW 19:11:56 72° ESE 19:14:13 37° NE
ATLAS 5 CENTAUR R/B 2.7 19:08:16 10° WSW 19:12:02 38° NW 19:13:59 25° NNE
Meteor 2-10 Rocket 3.5 19:07:48 10° S 19:13:25 88° ESE 19:18:52 10° NNE
SL-8 R/B 3.6 19:09:28 10° WSW 19:14:15 71° SSE 19:14:17 71° SSE
Cosmos 1844 3.7 19:09:47 10° NNW 19:15:35 66° ENE 19:16:17 60° E
Cosmos 1825 4.4 19:13:02 10° N 19:13:54 16° N 19:13:54 16° N
YAOGAN 1 4.1 19:14:04 10° SSW 19:18:01 35° W 19:22:01 10° NNW
Cosmos 1140 Rocket 4.0 19:14:49 10° NNW 19:19:00 44° NNE 19:19:00 44° NNE
Cosmos 1408 4.1 19:16:18 10° NNW 19:18:11 29° NNW 19:18:11 29° NNW
H-2A R/B 2.4 19:18:45 10° N 19:22:49 59° WNW 19:26:53 10° SSW
NOSS 2-3 (D) 4.2 19:19:57 10° SW 19:22:51 47° SSW 19:22:51 47° SSW
Cosmos 2360 Rocket 3.3 19:18:56 10° S 19:21:41 29° S 19:21:41 29° S
Orbus 7S? 3.9 19:20:23 10° WNW 19:28:40 76° SW 19:28:54 74° S
NOSS 3-1 (C) 3.2 19:24:34 10° SW 19:29:56 85° NW 19:31:34 51° NE
CENTAUR R/B 4.1 19:23:46 10° NW 19:30:15 31° NNE 19:32:46 26° NE
Cosmos 2344 4.3 19:21:55 10° NW 19:30:57 81° SW 19:38:08 29° SSE
NOSS 2-3 (C) 4.5 19:32:39 10° SW 19:35:24 42° WSW 19:35:24 42° WSW
CZ-4 R/B 4.1 19:40:38 10° SW 19:43:27 18° W 19:46:20 10° NW
Okean-O 4.2 19:42:51 24° SW 19:44:44 34° W 19:48:47 10° NNW
Cosmos 1980 Rocket 4.4 19:44:53 10° W 19:49:12 22° NW 19:53:34 10° N
Cosmos 1932 4.4 19:44:49 10° NW 19:51:04 76° SW 19:51:17 75° SSW
Resurs 01 Rocket 4.1 20:00:28 14° N 20:00:28 14° N 20:01:05 10° N
Cosmos 1943 Rocket 4.4 20:01:46 10° N 20:03:29 14° NNE 20:03:29 14° NNE
Cosmos 2100 Rocket 4.4 20:14:15 60° NNW 20:14:15 60° NNW 20:19:33 10° N
USA 215 3.9 20:18:54 46° N 20:18:59 46° N 20:25:10 10° WNW
Cosmos 1844 Rocket 3.8 20:14:54 10° NW 20:19:43 37° W 20:19:43 37° W
USA 229 DEB 4.3 20:25:14 10° SW 20:29:38 45° WSW 20:29:38 45° WSW
USA 229 4.4 20:25:20 10° SW 20:29:39 44° WSW 20:29:39 44° WSW
Lacrosse 4 Rocket 4.3 20:29:10 10° WNW 20:30:38 14° W 20:30:38 14° W
Cosmos 2278 Rocket 3.9 20:28:47 10° NNW 20:31:18 26° NNW 20:31:18 26° NNW
SL-16 R/B 4.1 20:36:48 10° W 20:41:31 26° NW 20:43:48 21° N
Cosmos 2322 Rocket 4.1 20:51:53 10° W 20:56:08 26° NW 20:56:08 26° NW
ATLAS 3B R/B 4.4 20:55:26 10° NW 21:00:54 24° N 21:01:17 24° N
CENTAUR R/B 3.9 21:14:47 10° NW 21:19:55 43° NNW 21:19:55 43° NNW
